SCP
-0 -0 -0 -0 -1 -1 -2 -2 -2 -1 -1 -1 -1 -1 -1 -1 -0 -0 -0 -0 0 0 0 0 0 -0 -0 -0 -0 -0 -0 -0 -0 -0 -0 -0 0 0 0 0 0 0 0
-0 -0 -0 -0 -1 -1 -1 -1 -1 -1 -1 -1 -1 -1 -1 -0 -0 -0 -0 -0 0 0 0 0 -0 -0 -0 -0 -0 -0 -0 0 0 -0 -0 0 0 0 0 0 0 0 0
-0 -0 -0 -0 -0 -1 -1 -1 -1 -1 -1 -1 -1 -0 -0 -0 -0 -0 -0 0 0 0 -0 -0 0 -0 -0 -0 -0 0 -0 -0 -0 0 0 0 0 0 0 0 0 0 0
-0 0 0 -0 -0 -1 -1 -1 -1 -1 -1 -0 -0 -0 -0 -0 -0 -0 0 0 0 0 -0 0 -0 -0 -0 0 0 0 -0 -0 -0 0 0 0 0 0 0 0 0 0 0
0 0 0 -0 -0 -0 -1 -1 -1 -0 -0 -0 -0 -0 -0 -0 -0 0 0 0 0 0 -0 -0 -0 -0 -0 -0 0 0 -0 -0 -0 0 0 0 0 0 0 0 0 0 0
1 1 0 0 -0 -0 -0 -1 -1 -0 -0 -0 -0 -0 -0 -0 0 0 0 -0 -0 -0 -0 -0 -0 -0 -0 -0 -0 -0 -0 -0 -0 -0 -0 0 0 0 0 0 0 0 0
1 1 0 0 0 -0 -0 -0 -0 -0 -0 -0 -0 -0 -0 -0 -0 -0 -0 -0 -0 -0 -0 -0 -0 -0 -0 -0 -0 -0 -0 -0 0 -0 -0 0 0 0 0 0 0 0 0
1 1 1 1 0 0 0 0 0 -0 -0 -0 0 0 -0 -0 -0 -0 -0 -0 -0 -0 -0 -0 -0 -0 -0 -0 -0 -0 -0 -0 -0 -0 -0 -0 0 0 0 0 0 0 0
1 1 1 1 1 1 0 0 0 0 0 0 0 0 0 0 0 0 -0 -0 -0 -0 -0 -0 -0 -0 -0 -0 -0 -0 -0 -0 0 0 -0 0 0 0 0 0 0 0 0
0 0 1 1 1 1 1 1 1 0 0 0 0 0 0 0 0 0 -0 -0 -0 -0 -0 -0 -0 -0 -0 -0 -0 -0 -0 -0 -0 0 -0 -0 0 0 0 0 0 0 0
0 0 0 1 1 1 1 1 1 1 1 1 1 0 0 0 0 0 0 0 0 0 0 0 -0 -0 -0 -0 -0 -0 -0 -0 0 0 -0 -0 0 0 0 0 -0 0 0
0 -0 0 0 1 1 1 1 1 1 1 1 1 1 1 0 0 0 0 0 0 0 0 0 0 0 0 0 -0 -0 -0 -0 0 0 0 0 0 0 0 0 0 0 0
0 0 0 0 0 0 1 1 1 1 1 1 1 1 1 1 0 1 0 0 0 0 0 0 0 0 0 0 0 0 0 0 0 0 0 0 0 0 0 0 0 0 0
1 1 0 1 1 0 1 1 1 1 1 1 1 1 1 1 0 0 0 0 0 0 0 0 0 0 0 0 0 0 0 0 0 0 0 0 0 0 0 0 0 0 0
2 1 1 1 1 1 1 1 1 1 1 1 1 1 1 1 1 1 0 0 0 0 0 0 0 0 0 0 0 0 0 0 0 0 0 0 0 0 1 1 1 0 0
0 1 1 1 0 1 1 1 1 1 2 1 1 1 1 1 1 1 1 0 0 0 0 0 0 0 0 0 0 0 0 0 0 -0 0 -0 -0 0 1 1 1 1 1
0 0 0 1 1 0 0 1 1 1 1 1 1 1 1 1 1 1 1 1 1 0 0 0 0 0 0 0 0 0 0 0 0 0 0 -0 0 -0 0 1 1 1 1
0 0 0 1 0 0 0 1 1 1 1 1 1 1 1 1 1 1 1 1 1 1 0 0 0 0 0 0 0 0 0 0 0 0 0 0 0 0 0 0 0 1 1
0 0 0 0 0 0 0 0 1 1 1 1 1 1 1 2 2 2 1 1 1 1 0 0 0 0 0 0 0 0 0 0 0 0 0 0 0 1 0 0 1 0 1
0 0 0 0 0 0 0 0 1 2 1 1 1 1 0 1 1 2 2 1 1 1 1 0 0 0 0 0 0 0 0 0 0 0 0 0 0 0 1 0 1 1 1
0 0 0 0 0 0 0 0 0 0 0 0 1 1 1 1 1 1 1 2 1 1 1 1 1 0 0 0 0 0 0 0 0 0 0 0 1 1 1 1 1 1 1
0 0 0 0 0 0 0 0 0 0 0 0 0 0 1 1 1 1 1 1 1 1 1 1 1 1 1 1 1 0 0 0 0 0 0 0 0 0 1 1 1 1 1
0 0 0 0 0 0 0 0 0 0 0 0 0 0 0 0 0 0 1 1 1 1 1 1 1 1 1 1 0 1 0 0 0 0 0 0 1 1 1 1 1 1 1
0 0 0 0 0 0 0 0 0 0 0 0 0 0 0 0 0 0 0 0 1 1 1 2 2 1 1 1 1 1 1 0 0 0 0 1 1 1 1 1 1 1 1
0 0 0 0 0 0 0 0 0 0 0 0 0 0 0 0 0 0 0 0 0 1 1 2 2 2 2 1 2 1 0 0 0 0 0 1 1 1 2 1 1 1 1
0 0 0 0 0 0 0 0 0 0 0 0 0 0 0 0 0 0 0 0 0 1 1 2 2 2 3 2 1 1 1 1 0 1 0 0 0 0 1 2 1 1 1
Wind_Speed_500mb
55 56 58 55 49 44 41 41 41 42 38 32 31 30 30 26 25 30 34 35 32 32 31 27 23 21 20 23 24 27 30 31 29 28 30 30 29 26 23 20 19 16 16
62 59 58 55 50 45 42 40 41 41 40 37 33 31 29 28 32 36 37 34 32 30 27 25 24 24 24 23 24 24 25 23 23 25 26 26 27 25 24 22 17 15 14
64 62 58 55 52 46 43 42 42 41 39 37 34 31 28 32 37 39 37 33 31 29 27 26 27 24 22 22 23 27 23 20 21 19 19 21 24 25 23 20 19 15 14
63 63 60 56 52 47 43 42 44 43 40 36 33 30 30 37 39 39 36 33 30 27 25 26 25 23 21 21 25 22 20 17 16 18 18 19 19 21 19 16 15 15 14
61 61 60 56 52 46 43 42 43 40 37 33 31 30 35 40 41 39 37 35 31 26 25 25 24 23 21 22 24 21 17 11 10 12 14 17 20 20 17 16 13 11 12
60 60 58 55 52 47 42 41 42 38 34 30 30 31 35 39 41 40 39 35 30 27 25 24 24 24 23 22 21 21 15 9 3 5 7 10 15 16 16 15 14 11 9
58 57 56 54 53 49 43 40 39 37 33 29 28 31 35 39 41 40 38 33 29 26 25 24 23 22 22 21 20 19 17 10 6 2 1 5 11 13 14 14 13 14 13
51 55 56 54 52 50 43 41 39 37 33 30 27 28 33 37 39 39 37 32 27 25 24 23 22 21 21 21 19 17 15 15 14 9 4 2 5 9 13 15 13 13 14
46 50 55 55 53 51 46 44 41 38 35 32 29 27 29 33 35 36 34 31 29 27 26 24 22 21 20 20 19 17 16 16 17 16 11 6 2 3 9 14 16 13 15
50 50 51 52 53 54 51 46 44 40 38 36 33 30 28 30 33 34 34 33 31 29 28 26 24 24 23 22 21 20 20 20 21 20 17 12 8 5 5 12 16 16 14
45 49 51 53 53 52 51 50 47 45 42 41 40 39 37 35 34 36 36 35 34 32 31 30 28 28 28 27 26 25 26 26 26 25 23 20 15 10 5 9 13 17 16
47 48 52 54 53 53 52 51 50 49 50 50 49 47 47 44 40 37 38 39 39 38 36 34 33 32 33 32 31 31 31 31 32 31 28 25 20 16 11 9 14 18 18
44 46 48 47 51 53 54 54 51 51 51 52 54 54 52 50 48 46 43 43 44 44 43 42 41 40 39 37 38 38 37 37 34 38 37 31 28 24 18 14 15 19 20
52 49 47 46 46 49 52 53 57 59 58 56 55 55 57 57 56 55 53 50 50 50 49 49 48 45 45 45 45 45 44 45 41 39 41 40 39 34 27 22 21 22 22
34 44 47 49 48 47 53 54 53 52 54 50 50 48 53 57 58 58 60 58 56 55 56 56 56 55 54 53 53 53 53 53 52 48 47 46 45 43 38 33 28 27 28
26 29 31 40 53 54 54 52 52 52 50 50 46 43 45 51 53 59 63 64 63 63 62 65 64 65 64 63 64 64 63 60 58 55 53 52 51 48 44 40 33 33 35
18 22 27 31 49 53 55 51 49 47 48 47 42 41 41 45 44 48 59 63 66 68 69 69 71 71 73 74 73 70 70 67 64 63 60 59 56 53 45 42 39 38 38
6 20 30 31 43 54 55 47 42 39 44 46 45 48 51 53 56 56 57 57 59 69 73 73 77 76 79 81 80 79 75 75 72 67 62 61 55 56 52 51 50 47 44
14 15 30 33 29 38 41 41 41 35 33 41 48 49 47 55 59 61 61 64 68 67 69 74 79 81 83 84 84 82 85 85 76 71 65 58 55 58 58 53 53 55 56
30 29 28 34 34 31 27 29 27 27 32 35 38 44 48 53 52 51 61 63 70 77 81 80 79 81 83 87 84 85 85 87 86 78 73 67 61 59 59 60 54 54 55
35 39 42 38 35 34 29 25 24 27 33 35 36 42 46 42 46 53 62 67 65 68 79 89 92 87 89 86 89 89 95 91 85 81 81 73 68 67 63 59 60 51 48
30 29 32 34 35 32 28 26 20 17 16 17 19 25 31 34 37 41 50 60 63 71 79 83 88 95 96 95 98 86 81 80 89 92 84 80 78 78 75 71 66 57 54
38 36 35 31 26 19 13 9 11 17 24 31 36 39 41 44 47 49 52 57 62 63 70 82 86 90 98 100 98 83 43 58 71 71 75 87 82 85 84 77 68 63 60
40 30 20 14 6 3 12 20 28 34 41 45 48 49 51 54 57 61 65 68 70 69 77 78 80 89 92 102 99 103 95 94 63 56 68 76 86 92 90 84 75 71 64
20 12 5 3 10 20 28 32 34 34 39 41 45 49 51 53 54 55 58 62 69 71 73 75 79 81 88 98 99 100 91 93 100 91 76 68 66 71 96 94 86 81 73
12 6 5 8 12 27 29 33 39 45 49 51 51 56 57 58 58 55 57 58 62 69 73 72 73 79 84 87 93 98 102 85 84 97 90 98 97 82 78 97 87 87 78
Wind_Direction_500mb
170 167 162 162 161 162 162 162 164 167 167 163 159 155 154 157 158 156 155 151 146 143 140 136 132 127 118 112 109 108 108 99 93 84 72 68 63 60 55 58 61 68 78
167 168 164 164 162 164 164 164 165 166 166 163 160 159 161 164 163 162 157 153 150 144 142 138 133 129 126 120 118 119 116 106 98 88 75 67 59 57 52 47 49 55 65
168 168 166 166 164 167 168 167 166 165 164 164 166 169 171 169 166 163 158 154 149 145 142 139 139 136 133 130 128 128 121 106 94 91 79 66 52 48 46 40 39 45 50
170 170 168 169 167 169 171 168 167 164 164 167 171 175 174 170 167 165 160 157 153 151 148 146 145 143 143 144 146 141 129 120 106 93 82 70 51 40 41 41 37 36 44
173 171 168 171 169 171 173 170 167 165 165 170 174 174 171 169 167 166 164 165 162 159 157 155 155 153 155 158 162 154 147 130 105 90 76 66 55 35 28 31 26 24 32
176 172 170 173 171 172 174 173 170 170 171 174 174 172 170 169 168 170 171 170 168 167 166 165 166 166 166 165 166 168 164 153 130 56 65 56 51 38 20 15 15 7 12
177 174 172 176 175 174 176 177 176 176 177 178 177 175 173 173 174 176 177 178 176 175 175 176 178 175 174 174 175 177 179 194 223 248 51 60 54 37 8 354 356 1 360
180 176 175 180 179 178 179 182 183 184 185 185 183 181 182 182 183 186 187 187 186 187 187 189 189 187 186 186 189 194 203 220 237 231 274 352 37 33 10 343 331 346 348
184 179 180 182 181 183 184 187 189 191 193 195 195 192 191 194 196 198 199 199 199 199 200 200 202 202 204 203 203 206 212 225 238 245 254 263 278 8 350 339 320 326 328
184 184 186 188 188 187 189 191 195 197 200 202 204 206 206 205 206 211 215 215 212 210 210 211 212 214 216 216 217 219 219 224 234 243 236 235 246 277 338 334 321 308 306
186 189 190 194 194 194 195 197 199 203 207 209 210 211 214 215 216 217 220 224 226 223 219 219 221 223 224 223 223 223 226 227 231 233 230 230 241 252 283 314 306 297 292
187 188 194 198 199 199 201 204 206 209 212 213 215 217 219 219 221 225 226 227 228 229 229 228 230 230 231 232 232 230 231 232 235 231 230 234 240 247 253 271 284 285 281
200 197 195 198 203 206 207 209 211 215 217 219 220 222 225 226 226 228 230 233 233 233 234 234 234 234 236 236 238 238 236 236 239 236 231 231 233 235 242 249 262 273 275
209 207 207 206 204 207 213 217 218 219 220 222 224 224 227 230 231 234 235 236 240 240 240 241 242 243 243 242 241 242 240 241 243 242 238 235 231 229 233 239 246 259 265
221 219 223 222 212 209 215 219 224 229 232 233 233 237 237 238 240 242 245 243 243 246 249 247 247 246 247 247 246 246 246 246 246 247 245 238 233 232 233 233 239 254 257
208 216 224 230 224 217 218 221 230 234 241 242 240 247 250 250 252 253 253 255 257 260 258 258 254 254 250 251 251 248 249 249 248 249 248 243 241 242 245 243 244 250 260
202 209 217 218 222 223 224 231 241 243 247 245 244 250 256 258 266 269 263 262 266 267 266 264 268 264 262 262 257 256 257 255 254 251 252 252 250 253 255 249 252 260 262
206 184 189 206 222 220 222 241 251 268 250 252 255 260 258 260 265 270 269 272 273 270 269 270 266 263 262 263 262 258 258 259 259 257 258 258 257 253 255 257 260 262 262
223 174 171 191 209 224 237 242 266 275 275 264 261 266 267 264 267 271 276 277 278 278 274 273 271 266 265 265 266 266 261 258 257 258 255 255 256 254 253 254 258 261 263
175 171 164 163 176 193 209 230 244 259 268 271 275 283 288 283 282 276 272 273 276 281 281 276 272 270 266 267 267 268 270 264 261 258 256 254 251 253 250 250 247 255 260
166 165 170 178 186 194 198 210 223 233 250 260 264 266 273 282 285 282 282 283 281 279 281 279 279 273 272 267 268 267 267 267 263 258 255 252 248 247 247 248 251 254 259
194 178 166 173 177 182 192 202 214 231 250 265 267 277 287 285 284 283 280 277 278 280 281 281 281 278 272 267 262 261 266 271 265 256 255 251 250 249 249 248 249 255 262
159 160 159 157 161 171 192 228 281 298 300 299 298 298 293 290 291 294 293 292 288 283 280 280 281 278 274 270 266 252 256 250 263 262 259 254 252 250 250 249 250 253 256
142 139 137 135 132 15 339 328 319 311 307 305 304 303 301 299 296 293 294 297 294 287 280 279 280 275 274 270 264 257 255 253 255 264 259 257 253 251 250 249 248 252 253
133 132 129 9 353 345 336 324 312 308 311 305 299 298 301 300 300 303 305 302 294 291 286 281 278 275 272 269 269 266 258 254 247 247 257 255 261 261 249 248 248 251 251
147 194 264 310 324 321 317 315 310 307 306 302 303 304 303 303 304 300 305 310 305 300 294 289 284 277 275 273 271 269 262 256 256 249 247 252 257 261 261 250 245 245 249
Wind_Speed_850mb
55 56 58 55 49 44 41 41 41 42 38 32 31 30 30 26 25 30 34 35 32 32 31 27 23 21 20 23 24 27 30 31 29 28 30 30 29 26 23 20 19 16 16
62 59 58 55 50 45 42 40 41 41 40 37 33 31 29 28 32 36 37 34 32 30 27 25 24 24 24 23 24 24 25 23 23 25 26 26 27 25 24 22 17 15 14
64 62 58 55 52 46 43 42 42 41 39 37 34 31 28 32 37 39 37 33 31 29 27 26 27 24 22 22 23 27 23 20 21 19 19 21 24 25 23 20 19 15 14
63 63 60 56 52 47 43 42 44 43 40 36 33 30 30 37 39 39 36 33 30 27 25 26 25 23 21 21 25 22 20 17 16 18 18 19 19 21 19 16 15 15 14
61 61 60 56 52 46 43 42 43 40 37 33 31 30 35 40 41 39 37 35 31 26 25 25 24 23 21 22 24 21 17 11 10 12 14 17 20 20 17 16 13 11 12
60 60 58 55 52 47 42 41 42 38 34 30 30 31 35 39 41 40 39 35 30 27 25 24 24 24 23 22 21 21 15 9 3 5 7 10 15 16 16 15 14 11 9
58 57 56 54 53 49 43 40 39 37 33 29 28 31 35 39 41 40 38 33 29 26 25 24 23 22 22 21 20 19 17 10 6 2 1 5 11 13 14 14 13 14 13
51 55 56 54 52 50 43 41 39 37 33 30 27 28 33 37 39 39 37 32 27 25 24 23 22 21 21 21 19 17 15 15 14 9 4 2 5 9 13 15 13 13 14
46 50 55 55 53 51 46 44 41 38 35 32 29 27 29 33 35 36 34 31 29 27 26 24 22 21 20 20 19 17 16 16 17 16 11 6 2 3 9 14 16 13 15
50 50 51 52 53 54 51 46 44 40 38 36 33 30 28 30 33 34 34 33 31 29 28 26 24 24 23 22 21 20 20 20 21 20 17 12 8 5 5 12 16 16 14
45 49 51 53 53 52 51 50 47 45 42 41 40 39 37 35 34 36 36 35 34 32 31 30 28 28 28 27 26 25 26 26 26 25 23 20 15 10 5 9 13 17 16
47 48 52 54 53 53 52 51 50 49 50 50 49 47 47 44 40 37 38 39 39 38 36 34 33 32 33 32 31 31 31 31 32 31 28 25 20 16 11 9 14 18 18
44 46 48 47 51 53 54 54 51 51 51 52 54 54 52 50 48 46 43 43 44 44 43 42 41 40 39 37 38 38 37 37 34 38 37 31 28 24 18 14 15 19 20
52 49 47 46 46 49 52 53 57 59 58 56 55 55 57 57 56 55 53 50 50 50 49 49 48 45 45 45 45 45 44 45 41 39 41 40 39 34 27 22 21 22 22
34 44 47 49 48 47 53 54 53 52 54 50 50 48 53 57 58 58 60 58 56 55 56 56 56 55 54 53 53 53 53 53 52 48 47 46 45 43 38 33 28 27 28
26 29 31 40 53 54 54 52 52 52 50 50 46 43 45 51 53 59 63 64 63 63 62 65 64 65 64 63 64 64 63 60 58 55 53 52 51 48 44 40 33 33 35
18 22 27 31 49 53 55 51 49 47 48 47 42 41 41 45 44 48 59 63 66 68 69 69 71 71 73 74 73 70 70 67 64 63 60 59 56 53 45 42 39 38 38
6 20 30 31 43 54 55 47 42 39 44 46 45 48 51 53 56 56 57 57 59 69 73 73 77 76 79 81 80 79 75 75 72 67 62 61 55 56 52 51 50 47 44
14 15 30 33 29 38 41 41 41 35 33 41 48 49 47 55 59 61 61 64 68 67 69 74 79 81 83 84 84 82 85 85 76 71 65 58 55 58 58 53 53 55 56
30 29 28 34 34 31 27 29 27 27 32 35 38 44 48 53 52 51 61 63 70 77 81 80 79 81 83 87 84 85 85 87 86 78 73 67 61 59 59 60 54 54 55
35 39 42 38 35 34 29 25 24 27 33 35 36 42 46 42 46 53 62 67 65 68 79 89 92 87 89 86 89 89 95 91 85 81 81 73 68 67 63 59 60 51 48
30 29 32 34 35 32 28 26 20 17 16 17 19 25 31 34 37 41 50 60 63 71 79 83 88 95 96 95 98 86 81 80 89 92 84 80 78 78 75 71 66 57 54
38 36 35 31 26 19 13 9 11 17 24 31 36 39 41 44 47 49 52 57 62 63 70 82 86 90 98 100 98 83 43 58 71 71 75 87 82 85 84 77 68 63 60
40 30 20 14 6 3 12 20 28 34 41 45 48 49 51 54 57 61 65 68 70 69 77 78 80 89 92 102 99 103 95 94 63 56 68 76 86 92 90 84 75 71 64
20 12 5 3 10 20 28 32 34 34 39 41 45 49 51 53 54 55 58 62 69 71 73 75 79 81 88 98 99 100 91 93 100 91 76 68 66 71 96 94 86 81 73
12 6 5 8 12 27 29 33 39 45 49 51 51 56 57 58 58 55 57 58 62 69 73 72 73 79 84 87 93 98 102 85 84 97 90 98 97 82 78 97 87 87 78
Wind_Direction_850mb
170 167 162 162 161 162 162 162 164 167 167 163 159 155 154 157 158 156 155 151 146 143 140 136 132 127 118 112 109 108 108 99 93 84 72 68 63 60 55 58 61 68 78
167 168 164 164 162 164 164 164 165 166 166 163 160 159 161 164 163 162 157 153 150 144 142 138 133 129 126 120 118 119 116 106 98 88 75 67 59 57 52 47 49 55 65
168 168 166 166 164 167 168 167 166 165 164 164 166 169 171 169 166 163 158 154 149 145 142 139 139 136 133 130 128 128 121 106 94 91 79 66 52 48 46 40 39 45 50
170 170 168 169 167 169 171 168 167 164 164 167 171 175 174 170 167 165 160 157 153 151 148 146 145 143 143 144 146 141 129 120 106 93 82 70 51 40 41 41 37 36 44
173 171 168 171 169 171 173 170 167 165 165 170 174 174 171 169 167 166 164 165 162 159 157 155 155 153 155 158 162 154 147 130 105 90 76 66 55 35 28 31 26 24 32
176 172 170 173 171 172 174 173 170 170 171 174 174 172 170 169 168 170 171 170 168 167 166 165 166 166 166 165 166 168 164 153 130 56 65 56 51 38 20 15 15 7 12
177 174 172 176 175 174 176 177 176 176 177 178 177 175 173 173 174 176 177 178 176 175 175 176 178 175 174 174 175 177 179 194 223 248 51 60 54 37 8 354 356 1 360
180 176 175 180 179 178 179 182 183 184 185 185 183 181 182 182 183 186 187 187 186 187 187 189 189 187 186 186 189 194 203 220 237 231 274 352 37 33 10 343 331 346 348
184 179 180 182 181 183 184 187 189 191 193 195 195 192 191 194 196 198 199 199 199 199 200 200 202 202 204 203 203 206 212 225 238 245 254 263 278 8 350 339 320 326 328
184 184 186 188 188 187 189 191 195 197 200 202 204 206 206 205 206 211 215 215 212 210 210 211 212 214 216 216 217 219 219 224 234 243 236 235 246 277 338 334 321 308 306
186 189 190 194 194 194 195 197 199 203 207 209 210 211 214 215 216 217 220 224 226 223 219 219 221 223 224 223 223 223 226 227 231 233 230 230 241 252 283 314 306 297 292
187 188 194 198 199 199 201 204 206 209 212 213 215 217 219 219 221 225 226 227 228 229 229 228 230 230 231 232 232 230 231 232 235 231 230 234 240 247 253 271 284 285 281
200 197 195 198 203 206 207 209 211 215 217 219 220 222 225 226 226 228 230 233 233 233 234 234 234 234 236 236 238 238 236 236 239 236 231 231 233 235 242 249 262 273 275
209 207 207 206 204 207 213 217 218 219 220 222 224 224 227 230 231 234 235 236 240 240 240 241 242 243 243 242 241 242 240 241 243 242 238 235 231 229 233 239 246 259 265
221 219 223 222 212 209 215 219 224 229 232 233 233 237 237 238 240 242 245 243 243 246 249 247 247 246 247 247 246 246 246 246 246 247 245 238 233 232 233 233 239 254 257
208 216 224 230 224 217 218 221 230 234 241 242 240 247 250 250 252 253 253 255 257 260 258 258 254 254 250 251 251 248 249 249 248 249 248 243 241 242 245 243 244 250 260
202 209 217 218 222 223 224 231 241 243 247 245 244 250 256 258 266 269 263 262 266 267 266 264 268 264 262 262 257 256 257 255 254 251 252 252 250 253 255 249 252 260 262
206 184 189 206 222 220 222 241 251 268 250 252 255 260 258 260 265 270 269 272 273 270 269 270 266 263 262 263 262 258 258 259 259 257 258 258 257 253 255 257 260 262 262
223 174 171 191 209 224 237 242 266 275 275 264 261 266 267 264 267 271 276 277 278 278 274 273 271 266 265 265 266 266 261 258 257 258 255 255 256 254 253 254 258 261 263
175 171 164 163 176 193 209 230 244 259 268 271 275 283 288 283 282 276 272 273 276 281 281 276 272 270 266 267 267 268 270 264 261 258 256 254 251 253 250 250 247 255 260
166 165 170 178 186 194 198 210 223 233 250 260 264 266 273 282 285 282 282 283 281 279 281 279 279 273 272 267 268 267 267 267 263 258 255 252 248 247 247 248 251 254 259
194 178 166 173 177 182 192 202 214 231 250 265 267 277 287 285 284 283 280 277 278 280 281 281 281 278 272 267 262 261 266 271 265 256 255 251 250 249 249 248 249 255 262
159 160 159 157 161 171 192 228 281 298 300 299 298 298 293 290 291 294 293 292 288 283 280 280 281 278 274 270 266 252 256 250 263 262 259 254 252 250 250 249 250 253 256
142 139 137 135 132 15 339 328 319 311 307 305 304 303 301 299 296 293 294 297 294 287 280 279 280 275 274 270 264 257 255 253 255 264 259 257 253 251 250 249 248 252 253
133 132 129 9 353 345 336 324 312 308 311 305 299 298 301 300 300 303 305 302 294 291 286 281 278 275 272 269 269 266 258 254 247 247 257 255 261 261 249 248 248 251 251
147 194 264 310 324 321 317 315 310 307 306 302 303 304 303 303 304 300 305 310 305 300 294 289 284 277 275 273 271 269 262 256 256 249 247 252 257 261 261 250 245 245 249